Theta_e
347 354 360 361 361 361 361 361 363 364 364 363 361 359 359 359 359 360 359 358 358 357 357 356 355 355 355 358 357 357 356 355 351 350 353 357 360 362 361 360 360 357 361
351 355 360 361 361 361 362 362 362 363 361 361 361 359 359 359 358 359 359 360 360 357 358 358 356 357 357 358 357 357 355 356 353 354 354 355 359 360 361 360 359 357 360
354 355 358 362 362 362 361 362 361 360 359 360 359 360 360 359 357 357 358 359 359 360 358 359 358 358 358 358 357 358 359 356 356 356 357 355 355 359 359 360 360 360 359
355 355 357 364 363 361 360 361 360 360 359 359 359 360 360 360 360 359 358 358 359 357 356 359 360 358 357 357 357 357 359 359 357 358 354 354 354 356 359 360 360 360 359
354 355 357 364 363 360 361 361 360 359 360 360 360 359 359 360 360 359 355 359 360 360 357 359 359 360 358 357 356 356 356 358 357 354 353 354 354 357 358 360 358 359 359
354 354 361 362 361 360 360 360 360 360 361 360 359 360 361 360 361 360 358 357 359 360 359 357 358 359 359 358 355 356 355 357 356 351 352 352 353 358 359 357 357 357 357
353 354 356 363 360 362 363 360 362 362 361 360 359 360 360 359 360 359 360 359 358 355 358 359 359 358 359 358 356 356 355 355 354 350 349 350 354 360 358 358 358 357 357
353 355 354 362 365 363 363 363 363 361 361 361 361 361 361 360 359 359 359 357 358 358 357 357 357 358 359 358 356 355 355 355 354 352 349 350 354 359 358 358 359 359 358
355 355 356 357 360 364 364 361 361 362 360 361 361 362 361 360 359 359 358 358 357 357 357 357 356 357 356 356 355 354 354 355 352 352 351 351 356 359 358 358 359 359 358
353 354 354 355 357 354 354 361 361 363 364 360 360 361 361 360 358 360 360 360 359 357 357 358 357 356 356 357 357 356 356 355 354 352 354 352 356 360 360 359 361 360 357
351 352 352 352 352 355 355 355 362 362 362 364 363 362 359 356 356 358 358 360 358 359 359 359 358 359 358 357 357 358 358 354 353 352 354 354 357 359 360 359 360 360 359
346 350 350 350 352 354 357 354 353 356 357 357 357 356 355 354 354 356 357 358 358 358 358 358 360 359 360 356 353 357 353 352 351 350 352 354 357 358 359 360 361 360 358
345 350 351 350 351 352 353 352 351 354 355 354 353 354 355 355 352 351 352 353 352 357 354 356 354 355 354 354 354 354 352 352 351 350 351 358 357 359 358 360 362 358 358
344 348 350 350 349 349 350 352 350 352 352 351 350 351 352 352 348 346 349 350 350 351 351 350 351 352 351 352 352 351 352 350 350 351 351 357 359 359 359 360 362 361 358
342 345 348 349 348 348 347 351 351 349 351 350 350 351 351 349 347 348 348 347 347 349 350 348 347 346 347 348 350 349 350 349 351 350 350 355 359 359 360 359 359 361 360
342 344 346 348 348 344 345 348 350 349 348 349 350 351 353 350 347 346 347 347 349 349 348 349 349 348 348 349 348 349 348 347 350 351 351 350 355 359 361 359 356 357 359
343 343 344 346 347 341 342 345 346 347 348 346 349 350 353 352 349 348 349 349 350 350 350 351 349 349 348 349 348 350 350 349 350 351 352 350 349 354 358 360 357 356 355
344 344 346 348 346 341 341 344 345 346 347 348 348 350 353 353 351 350 349 349 352 350 349 349 348 346 346 346 347 349 350 351 350 350 352 351 349 350 354 358 359 356 354
341 342 345 346 343 342 342 344 344 346 346 346 349 350 351 351 350 349 348 350 351 348 349 348 347 347 346 344 345 347 348 348 350 351 351 352 352 351 352 353 357 356 356
339 339 343 344 343 342 343 343 343 345 348 350 350 350 349 350 349 346 348 350 350 349 348 348 345 344 344 340 346 344 346 347 349 351 350 352 353 352 352 351 352 352 355
337 337 339 341 342 342 342 341 340 341 347 348 350 350 350 351 349 350 349 350 347 345 345 344 341 337 335 336 340 340 339 346 347 347 349 348 347 351 353 354 353 353 353
336 338 339 341 341 343 344 343 344 344 348 347 348 346 344 344 348 350 350 344 343 339 337 336 336 334 333 333 336 333 332 334 337 340 341 340 345 350 351 352 353 353 352
336 338 339 341 342 344 344 344 347 348 347 344 345 346 345 346 352 353 347 342 340 337 334 335 335 334 330 333 333 335 329 327 331 335 334 338 344 344 344 344 344 348 352
335 339 340 341 342 344 344 344 344 343 342 345 345 346 348 348 352 349 344 342 339 337 336 338 336 333 331 329 331 330 330 332 330 325 329 331 339 336 335 335 336 338 343
336 338 339 341 342 344 344 344 343 342 344 346 347 345 349 350 351 344 342 340 338 338 337 338 338 336 333 329 328 328 328 327 327 324 322 327 337 341 333 331 331 333 336
336 336 338 337 341 342 344 343 342 342 343 344 346 346 348 346 342 342 342 339 339 340 340 339 338 334 331 329 327 326 326 325 325 323 321 323 328 334 331 328 326 328 331
Wind_Speed
3 4 12 15 16 16 17 18 17 17 17 16 16 16 14 12 11 10 10 9 8 7 7 6 5 4 5 6 6 6 6 5 3 5 8 8 8 10 12 12 12 11 13
7 6 13 16 17 16 15 16 16 15 15 15 14 13 12 11 9 8 8 7 8 8 7 6 6 5 6 7 7 6 6 5 6 7 8 9 9 9 10 12 11 11 12
8 6 9 15 16 16 15 15 15 14 13 12 12 11 11 10 8 7 6 5 6 7 6 6 7 8 9 9 7 7 8 9 7 8 9 4 4 9 9 10 11 12 13
9 6 6 14 15 16 15 14 14 13 12 11 10 10 8 8 7 6 5 5 5 6 5 5 7 8 8 9 8 7 8 8 8 9 5 4 2 6 9 10 11 12 12
7 6 7 14 14 15 14 14 13 12 11 10 9 9 8 8 7 5 6 7 6 6 5 6 6 8 7 8 7 6 5 6 6 6 4 2 0 8 10 10 9 10 11
8 6 10 14 14 14 14 12 12 11 11 9 9 9 8 6 9 7 5 6 4 7 5 5 4 7 7 7 6 5 3 5 5 3 2 1 1 6 9 9 9 10 10
8 6 8 13 14 14 13 12 11 10 10 9 8 7 6 6 7 5 6 4 5 4 3 5 5 4 7 7 5 4 3 5 4 2 3 2 3 5 8 9 11 10 10
10 6 6 12 12 12 13 12 12 11 10 9 8 8 7 7 6 5 4 4 4 5 5 4 4 5 4 5 5 4 3 3 1 3 4 3 6 8 10 10 9 10 11
6 6 4 5 9 11 11 11 10 11 10 8 8 8 7 6 5 5 3 4 3 3 3 4 3 3 4 4 3 2 4 4 2 1 4 4 8 10 11 11 11 12 11
4 4 5 4 4 5 6 12 11 9 10 10 9 7 7 7 6 6 6 6 6 5 4 4 4 4 4 4 5 5 6 5 1 1 3 4 9 11 13 11 11 12 11
4 4 5 5 5 5 4 5 10 10 9 9 9 8 7 2 3 4 4 8 7 7 6 7 6 6 6 6 7 8 8 2 2 2 1 6 10 13 12 10 11 10 11
10 6 5 5 5 5 4 3 3 3 3 2 2 2 0 2 3 4 5 8 9 8 8 8 8 9 8 2 3 7 1 2 3 2 3 8 11 13 14 11 12 11 11
10 9 7 5 5 5 3 3 2 2 1 1 3 2 1 1 2 2 2 3 2 7 2 3 3 2 3 2 3 3 3 3 3 3 5 11 11 14 15 12 12 13 13
9 10 7 6 5 5 3 3 3 2 2 2 3 3 3 2 2 3 2 3 3 2 3 3 2 4 6 4 5 5 5 4 2 4 6 10 12 16 16 15 13 14 14
10 11 9 9 7 6 5 3 3 3 3 3 3 4 3 3 2 1 2 2 3 3 2 4 3 3 4 5 5 6 6 5 5 3 3 11 13 13 15 14 14 15 16
10 11 9 11 9 6 7 5 4 4 4 3 3 4 5 3 3 3 3 4 3 3 3 4 3 3 4 4 5 6 8 6 6 6 3 4 12 14 17 17 17 17 17
10 11 12 11 9 9 8 6 4 5 4 4 3 5 5 4 4 4 3 3 3 3 3 2 3 3 4 3 6 5 6 6 6 6 5 4 4 11 12 15 18 17 18
9 11 11 10 10 9 7 6 4 4 3 3 4 4 6 5 4 3 2 3 2 1 0 1 1 2 3 3 3 3 4 5 6 6 5 5 3 4 7 14 16 19 18
13 10 11 11 10 9 6 4 4 4 4 3 3 4 4 4 3 2 2 3 1 1 0 0 1 1 2 3 4 2 2 3 4 4 6 6 6 4 4 8 15 18 20
12 10 11 10 8 7 4 3 1 1 1 1 3 2 3 3 2 2 2 3 2 0 0 0 1 1 1 3 3 2 3 1 1 1 3 3 3 5 6 7 6 7 16
11 11 12 11 8 6 3 3 2 3 2 2 2 4 4 2 2 2 2 3 1 1 1 1 1 3 3 3 1 1 2 5 6 3 4 3 4 3 3 5 5 5 6
15 14 12 14 9 9 7 3 3 3 2 2 2 3 3 2 4 3 4 3 3 2 3 3 2 1 1 5 1 1 2 3 3 6 5 5 7 5 6 6 6 5 5
14 15 14 14 12 11 7 6 3 3 2 2 2 2 3 4 4 4 4 4 3 2 3 2 2 2 1 3 6 1 1 1 1 3 5 6 8 7 6 7 8 9 7
16 12 12 10 11 10 10 8 6 5 4 3 3 3 2 3 4 4 5 5 4 3 4 2 2 2 2 2 1 4 4 1 2 1 2 3 6 8 8 7 8 9 10
13 13 12 10 9 8 11 9 7 4 3 2 2 4 3 3 4 4 5 5 5 3 3 3 3 4 2 2 2 1 3 3 4 2 1 2 2 6 7 6 7 7 10
10 10 10 11 10 8 10 8 9 8 6 4 3 4 3 3 3 5 6 5 4 4 3 3 4 5 4 4 3 4 1 1 1 1 1 1 1 3 6 6 8 8 9
Wind_Direction
176 146 131 127 127 121 115 113 113 116 121 123 122 120 122 121 122 122 123 129 127 120 112 128 150 191 202 160 156 144 140 108 141 135 117 107 109 108 113 111 120 122 123
135 154 140 132 127 121 117 115 114 116 121 123 120 120 122 120 128 117 119 128 120 112 105 107 111 120 146 140 140 131 162 143 138 146 131 121 122 121 122 121 124 123 123
134 142 140 135 126 125 124 123 120 122 124 125 124 126 123 130 126 128 138 124 106 106 109 110 113 111 120 136 134 129 138 140 155 140 123 103 119 134 130 125 131 129 128
131 134 139 131 133 138 128 125 127 135 134 130 132 125 120 122 129 135 131 117 123 117 120 130 113 108 108 114 117 119 136 153 146 130 104 125 146 156 144 137 142 137 132
124 133 151 136 139 135 136 137 140 139 140 145 138 132 142 142 134 147 134 108 105 121 115 110 113 109 110 113 110 114 125 141 146 108 119 115 3 168 147 142 146 143 142
128 136 148 146 146 146 146 147 146 151 151 152 153 145 150 157 136 142 124 110 104 113 132 124 109 120 120 109 109 113 139 139 112 115 135 248 171 164 152 155 158 150 152
134 145 148 154 157 160 156 152 159 154 151 153 152 142 153 150 132 145 131 130 142 138 117 125 150 113 117 122 126 130 152 180 134 201 201 231 220 201 170 174 168 168 166
143 143 161 169 166 163 161 161 163 162 162 163 163 168 177 161 155 154 146 155 169 157 150 147 129 131 145 140 149 157 208 214 112 210 202 214 220 216 192 184 187 172 170
138 126 149 170 172 172 161 170 170 169 163 172 169 165 175 169 166 152 177 185 202 203 198 186 173 163 165 170 180 221 270 291 134 271 232 205 213 216 207 192 182 185 183
123 131 154 167 166 155 175 183 185 182 184 185 187 186 182 188 188 186 197 225 218 232 231 242 235 225 212 206 226 230 248 267 329 265 248 223 210 217 225 203 188 188 189
155 165 168 170 171 178 187 189 191 193 197 194 200 195 201 165 245 241 227 228 232 238 244 235 242 245 244 243 242 251 251 257 246 238 225 222 219 215 229 207 198 203 197
187 188 179 178 185 181 179 193 189 219 194 191 207 231 146 186 236 228 247 246 245 245 244 248 249 251 252 228 258 263 294 240 274 246 229 213 222 221 229 213 207 211 212
180 187 186 187 196 185 186 169 206 216 224 212 227 222 222 235 279 320 303 303 341 267 242 271 294 283 252 244 253 256 248 246 247 242 230 211 227 224 230 225 212 216 221
178 191 185 188 193 197 175 187 203 203 202 218 233 228 220 224 233 250 271 271 283 289 285 271 247 263 265 240 234 245 240 240 224 243 248 237 224 228 231 230 222 217 220
185 190 195 189 198 191 197 193 208 210 208 207 212 222 214 224 221 260 275 293 290 306 260 261 245 254 276 273 260 240 250 253 249 241 237 249 241 234 230 239 245 229 226
191 193 196 202 199 188 199 194 212 208 209 209 214 218 220 214 202 213 238 246 261 238 253 262 262 266 258 254 259 246 242 246 245 251 260 258 260 249 232 219 231 244 236
201 187 196 202 196 195 198 194 207 218 211 220 209 222 220 211 222 237 253 260 263 244 263 256 261 262 268 265 268 257 234 241 249 252 260 256 255 279 249 224 224 231 240
197 194 189 196 196 199 196 194 199 218 225 230 205 201 219 216 210 253 272 266 277 278 281 288 284 282 277 286 280 259 233 228 244 251 253 262 256 262 273 239 223 231 239
193 184 193 193 193 195 196 195 210 213 239 241 208 187 207 189 203 229 245 281 304 318 353 330 325 258 291 318 297 251 240 237 243 264 265 265 269 246 253 249 242 236 229
186 185 194 193 194 174 161 140 131 219 248 225 223 177 167 191 208 244 284 284 245 71 197 229 334 306 319 324 327 65 15 351 193 240 287 296 290 274 257 255 256 254 248
179 179 186 187 188 156 153 154 172 199 190 180 175 148 152 221 246 206 231 228 51 49 28 42 45 20 11 337 304 6 67 82 93 74 56 17 341 328 310 278 267 255 261
187 188 186 196 179 184 186 153 151 149 161 119 151 142 154 234 222 205 210 145 100 94 59 47 42 66 354 13 67 5 19 359 33 41 35 24 31 42 40 18 356 301 260
189 189 190 192 183 185 160 126 94 83 81 122 167 184 207 227 218 190 168 131 107 88 74 50 32 62 66 18 37 126 105 200 320 21 27 34 41 43 28 17 12 13 360
200 193 186 187 183 180 158 161 158 178 166 196 160 161 177 200 165 156 128 115 119 101 92 73 56 70 109 22 343 41 51 63 131 96 27 22 49 47 27 17 15 15 8
189 187 185 181 191 175 178 178 174 164 167 131 114 119 153 137 137 118 122 122 124 114 101 102 76 62 56 86 49 10 47 57 54 88 103 352 62 54 33 21 18 17 13
186 173 176 176 193 180 177 174 174 179 165 136 135 148 165 121 125 147 134 136 129 128 131 106 99 81 77 74 64 49 62 60 43 77 110 273 3 48 43 25 26 14 8